This demonstration page uses our WeatherBlox Daily Observations layout. Learn more.

Left ArrowRight Arrow

39.51506, -84.39828

Hourly Observations for June 18, 2022

Temp ( °F °C ) Dew Point ( °F °C ) Humidity (%) Winds ( mph kmh ) Pressure ( in mb ) Visibility ( mi km ) Precip ( " mm )
12:15 am 00:15 Clear 70 21 49 9.6 48 48 NNW 9 15 29.98 1015 10 16 0.00 0.00
12:35 am 00:35 Clear 69 20.7 49 9.5 49 49 NNW 8 13 29.98 1015 10 16 0.00 0.00
12:55 am 00:55 Clear 69 20.4 49 9.6 50 50 NNW 8 13 29.98 1015 10 16 0.00 0.00
1:15 am 01:15 Clear 68 20.2 49 9.6 51 51 N 7 11 29.99 1016 10 16 0.00 0.00
1:35 am 01:35 Clear 68 20 49 9.7 52 52 NNW 8 13 29.99 1016 10 16 0.00 0.00
1:55 am 01:55 Clear 67 19.6 50 9.8 53 53 NNW 7 11 29.99 1015 10 16 0.00 0.00
2:15 am 02:15 Clear 68 19.8 50 10 53 53 NNW 7 11 29.99 1015 10 16 0.00 0.00
2:35 am 02:35 Clear 67 19.5 50 10.2 55 55 NNW 9 15 29.99 1015 10 16 0.00 0.00
2:55 am 02:55 Clear 67 19.3 51 10.4 57 57 N 6 9 30.00 1016 10 16 0.00 0.00
3:15 am 03:15 Clear 67 19.4 51 10.7 57 57 N 9 15 30.00 1016 10 16 0.00 0.00
3:35 am 03:35 Clear 67 19.6 51 10.8 57 57 N 12 19 30.00 1016 10 16 0.00 0.00
3:55 am 03:55 Clear 67 19.4 52 10.9 58 58 N 12 19 30.01 1016 10 16 0.00 0.00
4:15 am 04:15 Clear 67 19.3 51 10.7 58 58 N 10 17 30.01 1016 10 16 0.00 0.00
4:35 am 04:35 Clear 66 19 49 9.2 53 53 N 16 26 30.02 1016 10 16 0.00 0.00
4:55 am 04:55 Clear 65 18.6 47 8.3 51 51 N 14 22 30.03 1017 10 16 0.00 0.00
5:15 am 05:15 Clear 65 18.1 45 7.3 49 49 N 14 22 30.04 1017 10 16 0.00 0.00
5:35 am 05:35 Clear 63 17.4 45 7.3 52 52 N 13 20 30.06 1018 10 16 0.00 0.00
5:55 am 05:55 Clear 63 17 45 7.2 53 53 N 17 28 30.07 1018 10 16 0.00 0.00
6:15 am 06:15 Sunny 62 16.6 46 7.5 55 55 N 15 24 30.08 1019 10 16 0.00 0.00
6:35 am 06:35 Sunny 62 16.4 46 7.8 57 57 N 15 24 30.09 1019 10 16 0.00 0.00
6:55 am 06:55 Sunny 61 16.3 46 8 58 58 N 16 26 30.10 1019 10 16 0.00 0.00
7:15 am 07:15 Sunny 62 16.4 46 8 58 58 NNE 14 22 30.11 1020 10 16 0.00 0.00
7:35 am 07:35 Sunny 62 16.5 44 6.6 52 52 NNE 15 24 30.13 1020 10 16 0.00 0.00
7:55 am 07:55 Sunny 62 16.6 42 5.3 47 47 NNE 17 28 30.14 1021 10 16 0.00 0.00
8:15 am 08:15 Sunny 62 16.9 42 5.8 48 48 NNE 10 17 30.14 1021 10 16 0.00 0.00
8:35 am 08:35 Sunny 63 17.2 42 5.6 47 47 N 14 22 30.15 1021 10 16 0.00 0.00
8:55 am 08:55 Sunny 63 17.3 42 5.4 46 46 NNE 14 22 30.16 1021 10 16 0.00 0.00
9:15 am 09:15 Sunny 64 17.5 42 5.4 45 45 NNE 17 28 30.17 1022 10 16 0.00 0.00
9:35 am 09:35 Sunny 64 17.8 43 6 46 46 N 13 20 30.17 1022 10 16 0.00 0.00
9:55 am 09:55 Sunny 65 18.3 44 6.4 46 46 N 9 15 30.17 1022 10 16 0.00 0.00
10:15 am 10:15 Sunny 66 19 45 7 46 46 NNE 13 20 30.17 1022 10 16 0.00 0.00
10:35 am 10:35 Sunny 67 19.5 45 7.2 45 45 N 9 15 30.17 1022 10 16 0.00 0.00
10:55 am 10:55 Sunny 67 19.7 45 7.2 44 44 N 10 17 30.17 1022 10 16 0.00 0.00
11:15 am 11:15 Sunny 69 20.4 46 7.6 44 44 N 14 22 30.16 1021 10 16 0.00 0.00
11:35 am 11:35 Sunny 69 20.6 47 8.1 45 45 NE 12 19 30.16 1021 10 16 0.00 0.00
11:55 am 11:55 Sunny 69 20.7 46 7.9 44 44 N 9 15 30.17 1022 10 16 0.00 0.00
12:15 pm 12:15 Sunny 71 21.5 47 8.4 43 43 N 9 15 30.17 1022 10 16 0.00 0.00
12:35 pm 12:35 Sunny 71 21.6 45 7.2 40 40 N 10 17 30.17 1022 10 16 0.00 0.00
12:55 pm 12:55 Sunny 73 22.5 46 7.6 38 38 N 10 17 30.16 1021 10 16 0.00 0.00
1:15 pm 13:15 Sunny 73 22.7 44 6.8 36 36 NNW 13 20 30.17 1022 10 16 0.00 0.00
1:35 pm 13:35 Sunny 73 22.9 43 6 34 34 N 12 19 30.17 1022 10 16 0.00 0.00
1:55 pm 13:55 Sunny 74 23.4 43 6 33 33 N 12 19 30.16 1021 10 16 0.00 0.00
2:15 pm 14:15 Sunny 74 23.4 42 5.3 31 31 N 16 26 30.16 1021 10 16 0.00 0.00
2:35 pm 14:35 Sunny 75 24 43 6.1 32 32 N 9 15 30.16 1021 10 16 0.00 0.00
2:55 pm 14:55 Sunny 75 24.1 42 5.7 31 31 N 12 19 30.15 1021 10 16 0.00 0.00
3:15 pm 15:15 Sunny 76 24.5 40 4.5 27 27 N 13 20 30.13 1020 10 16 0.00 0.00
3:35 pm 15:35 Sunny 76 24.5 40 4.4 27 27 N 10 17 30.13 1020 10 16 0.00 0.00
3:55 pm 15:55 Sunny 77 24.9 41 4.9 28 28 NNE 12 19 30.12 1020 10 16 0.00 0.00
4:15 pm 16:15 Sunny 77 25.1 38 3.3 24 24 NNW 10 17 30.12 1020 10 16 0.00 0.00
4:35 pm 16:35 Sunny 78 25.4 41 4.9 27 27 NNE 12 19 30.12 1020 10 16 0.00 0.00
4:55 pm 16:55 Sunny 77 25.2 39 3.7 25 25 NNW 7 11 30.12 1020 10 16 0.00 0.00
5:15 pm 17:15 Sunny 78 25.6 40 4.7 26 26 N 7 11 30.12 1020 10 16 0.00 0.00
5:35 pm 17:35 Sunny 78 25.3 38 3.3 24 24 N 12 19 30.12 1020 10 16 0.00 0.00
5:55 pm 17:55 Sunny 77 25.2 40 4.5 26 26 N 13 20 30.12 1020 10 16 0.00 0.00
6:15 pm 18:15 Sunny 77 25 38 3.1 24 24 N 10 17 30.12 1020 10 16 0.00 0.00
6:35 pm 18:35 Sunny 77 24.8 37 2.5 23 23 N 9 15 30.12 1020 10 16 0.00 0.00
6:55 pm 18:55 Sunny 76 24.6 38 3.1 25 25 N 6 9 30.12 1020 10 16 0.00 0.00
7:15 pm 19:15 Sunny 76 24.3 37 2.9 25 25 N 10 17 30.12 1020 10 16 0.00 0.00
7:35 pm 19:35 Sunny 75 23.9 39 3.8 27 27 N 12 19 30.14 1021 10 16 0.00 0.00
7:55 pm 19:55 Sunny 74 23.4 38 3.1 27 27 N 9 15 30.14 1021 10 16 0.00 0.00
8:15 pm 20:15 Sunny 73 22.7 39 3.7 29 29 N 7 11 30.14 1021 10 16 0.00 0.00
8:35 pm 20:35 Sunny 71 21.8 40 4.4 32 32 N 5 7 30.14 1021 10 16 0.00 0.00
8:55 pm 20:55 Sunny 69 20.7 40 4.5 35 35 N 6 9 30.14 1021 10 16 0.00 0.00
9:15 pm 21:15 Clear 67 19.2 44 6.8 45 45 N 5 7 30.16 1021 10 16 0.00 0.00
9:35 pm 21:35 Clear 64 17.9 45 7.2 50 50 NNW 5 7 30.15 1021 10 16 0.00 0.00
9:55 pm 21:55 Clear 62 16.8 47 8.2 57 57 NNW 5 7 30.16 1021 10 16 0.00 0.00
10:15 pm 22:15 Clear 59 15.2 49 9.3 68 68 Calm 30.17 1022 10 16 0.00 0.00
10:35 pm 22:35 Clear 60 15.6 48 9 65 65 N 5 7 30.18 1022 10 16 0.00 0.00
10:55 pm 22:55 Clear 60 15.4 47 8.5 64 64 N 6 9 30.19 1022 10 16 0.00 0.00
11:15 pm 23:15 Clear 59 14.8 48 8.8 68 68 N 5 7 30.20 1023 10 16 0.00 0.00
11:35 pm 23:35 Clear 58 14.5 49 9.6 73 73 Calm 30.20 1023 10 16 0.00 0.00
11:55 pm 23:55 Clear 57 13.9 50 10 78 78 NNW 3 6 30.21 1023 10 16 0.00 0.00

Powered by AerisWeather